Flag for South Africa Weather past 2 weeks in Bloemfontein, South Africa

Now
70 °F

Passing clouds.


Feels Like: 70 °F
Forecast: 26 / 52 °F
Wind: 26 mph from Northwest

Location: Bloemfontein Airport

Current Time: Jul 29, 2015 at 2:39:08 PM

Latest Report: Jul 29, 2015 at 2:00 PM


Visibility: N/A

Pressure: 29.98 "Hg (25.49 "Hg at 1397m altitude)

Humidity: 17%

Dew point: 23 °F

Location of BloemfonteinLocation

Historic Weather in Bloemfontein — Graph

°F

Bloemfontein temperature yesterday

Maximum temperature yesterday: 64 °F (at 2:00 PM)
Minimum temperature yesterday: 28 °F (at 7:00 AM)
Average temperature yesterday: 45 °F

Past Weeks' High & Low Weather Summary

 TemperatureHumidityPressure
High73 °F (Jul 20, 3:00 PM)100% (Jul 24, 1:01 AM)30.42 "Hg (Jul 24, 1:01 AM)
Low27 °F (Jul 18, 4:00 AM)13% (Jul 19, 2:00 PM)29.83 "Hg (Jul 16, 4:00 PM)
Average48 °F59%30.20 "Hg
* Reported Jul 14 1:00 PM — Jul 29 1:00 PM, Bloemfontein, Weather by CustomWeather, © 2015

Note: Actual official high and low records may vary slightly from our data, if they occured in-between our weather recording intervals... More about our weather records

Advertising

Bloemfontein weather history for previous 24 hours

 ConditionsComfort  
Time TempWeatherWind HumidityBarometerVisibility
1:00 PM
Wed, Jul 29
68 °FScattered clouds.25 mph21%30.01 "Hg3 mi
12:00 PM63 °FScattered clouds.18 mph27%30.07 "HgN/A
11:49 AM63 °FScattered clouds.18 mph27%30.07 "HgN/A
11:00 AM54 °FPartly sunny.12 mph38%30.12 "HgN/A
10:00 AM52 °FScattered clouds.10 mph47%30.09 "HgN/A
9:00 AM45 °FBroken clouds.6 mph66%30.09 "HgN/A
8:00 AM39 °FPartly sunny.No wind75%30.12 "HgN/A
7:00 AM39 °FScattered clouds.2 mph61%30.09 "HgN/A
6:00 AM37 °FSunny.1 mph60%30.07 "Hg10 mi
5:00 AM34 °FClear.No wind75%30.09 "Hg10 mi
4:00 AM34 °FChilly.2 mph70%30.07 "HgN/A
3:00 AM36 °FChilly.2 mph65%30.09 "HgN/A
2:00 AM34 °FChilly.No wind81%30.15 "HgN/A
1:00 AM36 °FChilly.2 mph65%30.12 "HgN/A
12:00 AM36 °FChilly.1 mph70%30.15 "HgN/A
11:00 PM
Tue, Jul 28
37 °FChilly.1 mph70%30.18 "HgN/A
10:00 PM43 °FQuite cool.2 mph49%30.15 "HgN/A
9:00 PM45 °FQuite cool.2 mph42%30.15 "HgN/A
8:00 PM45 °FClear.No wind49%30.18 "Hg10 mi
7:00 PM48 °FClear.2 mph37%30.15 "Hg10 mi
6:00 PM59 °FClear.3 mph20%30.12 "Hg10 mi
5:00 PM64 °FClear.7 mph14%30.15 "Hg10 mi
4:00 PM64 °FPassing clouds.9 mph15%30.12 "HgN/A
3:00 PM64 °FSunny.13 mph15%30.15 "Hg10 mi
2:00 PM64 °FSunny.9 mph14%30.18 "Hg10 mi
Weather by CustomWeather, © 2015

See weather overviewHow to use our weather pages